Location: Bannatyne
(13.0833°N, 59.5333°W)
Time: 21:09:02
(UTC+00:00)

Transit 2A - Pass Details

Date: 30 January 2020
Orbit: 600 x 959 km, 66.7° (Epoch: 22 February)

Event Time Altitude Azimuth Distance (km) Brightness Sun altitude
Rises 21:35:24 0° 208° (SSW) 3,075 10.0 4.4°
Reaches altitude 10° 21:37:51 10° 213° (SSW) 2,105 9.2 3.8°
Maximum altitude 21:42:28 56° 291° (WNW) 761 6.5 2.8°
Drops below altitude 10° 21:46:46 10° 9° (N) 1,964 7.9 1.8°
Sets 21:49:00 0° 14° (NNE) 2,848 8.6 1.3°
